Location: *
(49.0044°N, 9.5056°E)
Time: 02:08:33
(UTC+00:00)

CZ-4C R/B - Pass Details

Date: 22 September 2019
Orbit: 653 x 1349 km, 63.4° (Epoch: 19 October)

Event Time Altitude Azimuth Distance (km) Brightness Sun altitude
Rises 22:49:07 0° 317° (NW) 3,808 6.2 -40.5°
Reaches altitude 10° 22:51:36 10° 314° (NW) 2,946 5.5 -40.6°
Enters shadow 22:54:59 32° 306° (NW) 1,885 4.1 -40.7°
